Home > Weather > Minamisōma > Past weeks

Flag for Japan Past Weather in Minamisōma, Japan — Yesterday and Last 2 Weeks

Now
69 °F

Mild.


Feels Like: 69 °F
Forecast: 67 / 79 °F
Wind: 7 mph from South

Location: Sendai

Current Time: Jun 25, 2016 at 5:36:28 AM

Latest Report: Jun 25, 2016 at 4:00 AM


Visibility: N/A

Pressure: 29.47 "Hg

Humidity: 97%

Dew Point: 67 °F

Location of MinamisōmaLocation

Past Weather in Minamisōma — Graph

°F

Minamisōma Temperature Yesterday

Maximum temperature yesterday: 71 °F (at 2:00 PM)
Minimum temperature yesterday: 64 °F (at 12:00 AM)
Average temperature yesterday: 67 °F

High & Low Weather Summary for the Past Weeks

 TemperatureHumidityPressure
High85 °F (Jun 18, 2:00 PM)97% (Jun 16, 12:00 AM)30.02 "Hg (Jun 16, 12:00 AM)
Low62 °F (Jun 15, 8:00 PM)17% (Jun 10, 1:00 PM)29.47 "Hg (Jun 25, 3:00 AM)
Average69 °F81%29.80 "Hg
* Reported Jun 10 4:00 AM — Jun 25 4:00 AM, Minamisōma, Weather by CustomWeather, © 2016

Note: Actual official high and low records may vary slightly from our data, if they occured in-between our weather recording intervals... More about our weather records

Advertising

Minamisōma Weather History for the Previous 24 Hours

Scroll right to see more
 ConditionsComfort  
Time TempWeatherWind HumidityBarometerVisibility
4:00 AM
Sat, Jun 25
69 °FMild.7 mph97%29.47 "HgN/A
3:00 AM68 °FRain showers. Overcast.13 mph96%29.47 "Hg1 mi
2:00 AM68 °FMild.12 mph96%29.50 "HgN/A
1:00 AM68 °FMild.14 mph96%29.55 "HgN/A
12:00 AM68 °FMild.14 mph96%29.58 "HgN/A
11:00 PM
Fri, Jun 24
68 °FMild.14 mph96%29.64 "HgN/A
10:00 PM68 °FMild.15 mph95%29.65 "HgN/A
9:00 PM68 °FLight rain. Overcast.12 mph95%29.67 "Hg2 mi
8:00 PM67 °FMild.15 mph94%29.69 "HgN/A
6:00 PM68 °FLight rain. Overcast.7 mph89%29.73 "Hg7 mi
5:00 PM68 °FMild.10 mph87%29.73 "HgN/A
4:00 PM68 °FMild.10 mph84%29.74 "HgN/A
3:00 PM69 °FOvercast.10 mph85%29.76 "Hg12 mi
2:00 PM71 °FMild.12 mph77%29.76 "HgN/A
1:00 PM69 °FMild.7 mph82%29.76 "HgN/A
12:00 PM71 °FOvercast.7 mph80%29.77 "Hg16 mi
11:00 AM69 °FMild.5 mph80%29.78 "HgN/A
10:00 AM68 °FMild.5 mph89%29.81 "HgN/A
9:00 AM67 °FDrizzle. Overcast.5 mph90%29.82 "Hg7 mi
8:00 AM66 °FMild.2 mph90%29.81 "HgN/A
7:00 AM66 °FMild.2 mph93%29.80 "HgN/A
6:00 AM65 °FLow clouds.2 mph94%29.78 "Hg6 mi
5:00 AM64 °FMild.1 mph95%29.77 "HgN/A
Weather by CustomWeather, © 2016

See weather overviewHow to use our weather pages